Dewpoint
36 36 36 37 37 37 38 39 40 41 41 41 42 42 43 42 41 40 41 41 44 46 48 49 49 48 48 48 47 45 44 44 44 45 45 45 44 43 43 42 42 42 42 43 43 43 44 45 47 48 48 47 47 47 46 46 46 47 48 48 48 48 48 48 48 48 48 48 48
36 36 36 37 38 38 38 38 39 40 40 41 42 43 43 43 41 40 40 41 43 45 46 48 47 47 48 48 48 47 46 44 44 43 44 43 43 42 42 42 42 41 41 41 42 42 43 43 45 47 47 47 46 46 45 45 45 46 47 46 46 46 46 46 46 47 46 46 46
36 36 36 36 37 37 38 38 38 38 39 41 42 43 44 43 41 39 39 40 41 41 41 42 42 42 43 44 45 45 45 43 43 42 43 43 43 43 43 42 42 42 41 41 41 41 42 42 44 45 45 46 45 44 44 43 44 45 45 45 45 45 45 45 45 45 45 45 45
36 36 36 37 37 37 37 38 37 38 38 40 41 42 43 42 41 39 38 39 39 39 39 38 38 39 40 41 41 41 41 42 42 42 42 42 42 42 42 42 42 42 41 41 41 41 41 41 43 45 45 44 43 42 42 42 42 43 44 44 44 44 44 45 45 45 45 45 45
36 36 37 37 37 37 38 38 38 38 38 39 40 41 42 42 41 40 39 38 38 38 38 37 36 37 38 39 41 41 41 41 41 41 41 41 42 42 42 42 42 41 41 41 41 40 40 41 42 43 43 42 42 41 41 41 41 41 42 43 43 44 44 44 44 45 45 45 45
36 36 37 37 37 37 38 38 38 38 38 39 40 41 41 41 41 40 40 39 38 38 38 38 37 38 39 40 41 41 41 41 41 41 41 41 41 41 41 41 40 40 40 40 40 40 40 40 41 41 41 42 41 41 41 41 41 41 41 42 43 43 44 44 44 44 44 45 45
36 36 36 36 37 37 37 38 38 38 38 39 40 40 40 40 40 40 40 40 40 40 40 39 39 39 39 39 40 40 41 41 41 41 40 40 40 39 38 39 37 38 38 38 39 39 39 39 40 41 41 41 41 41 40 40 41 41 41 41 42 43 43 43 44 44 44 44 44
36 36 36 36 37 37 37 38 38 38 38 39 39 39 40 40 40 40 40 40 41 40 40 40 39 39 39 38 38 38 38 38 39 39 38 39 38 37 36 36 36 36 36 37 37 38 38 39 40 40 40 41 41 41 40 39 40 40 41 41 41 42 43 43 44 44 44 43 43
36 36 36 36 37 37 38 38 38 38 38 38 38 38 39 39 39 39 39 39 40 40 40 40 39 39 39 38 37 37 36 36 36 36 36 36 36 36 36 36 36 36 37 37 38 38 38 39 40 40 40 40 40 40 39 39 39 39 40 41 41 41 42 42 44 44 44 44 43
35 35 36 36 37 38 38 38 39 39 39 39 39 39 39 40 40 39 39 39 39 39 39 39 38 38 38 37 37 36 36 36 36 36 36 36 36 36 37 38 38 38 38 39 40 40 40 40 40 40 39 40 39 39 38 38 39 39 40 41 41 41 41 41 41 42 42 43 43
35 35 35 36 37 37 38 39 38 38 39 39 40 41 41 42 41 40 39 40 39 39 38 38 37 37 37 37 37 36 36 36 36 36 36 36 37 37 38 38 39 39 39 40 41 41 41 41 41 40 40 40 40 39 38 38 39 39 39 40 41 41 41 41 41 41 41 41 42
34 35 35 36 36 37 37 38 37 37 38 38 40 41 43 44 44 43 41 41 41 40 39 38 37 37 37 38 38 38 38 37 37 36 36 37 37 38 38 39 39 39 40 40 41 41 41 41 41 41 40 40 40 40 39 39 39 39 40 40 40 40 40 40 40 40 40 41 41
34 35 35 36 36 36 37 37 36 36 37 37 38 41 43 45 46 45 45 44 44 44 43 40 39 39 39 39 40 40 40 40 39 38 38 37 37 38 38 39 40 40 40 40 41 41 41 41 40 40 40 40 40 40 40 40 40 40 40 40 40 40 40 40 40 40 40 41 41
34 34 35 36 36 36 36 36 36 37 37 38 40 41 43 45 46 47 47 46 46 45 45 44 42 42 42 41 41 41 41 41 40 39 38 38 38 38 39 40 40 40 41 41 40 40 40 40 39 39 39 39 40 40 40 40 40 40 40 40 39 39 39 39 39 40 40 40 41
34 34 35 35 36 36 36 36 37 38 39 41 41 42 44 45 46 46 47 47 46 46 46 45 44 44 44 43 43 42 41 41 40 40 39 38 39 40 40 41 41 41 41 41 41 41 41 40 40 40 40 40 40 40 40 40 40 39 39 39 39 39 39 39 39 39 39 39 40
34 34 35 35 35 36 36 36 38 39 40 41 41 42 43 44 45 45 46 46 46 46 46 45 44 44 44 43 43 42 41 41 41 40 40 40 40 41 41 41 41 41 41 41 41 41 41 40 40 41 41 41 41 41 40 39 39 38 38 38 38 38 38 38 37 37 37 38 38
34 34 35 35 35 36 36 36 37 38 39 40 40 41 42 43 44 44 45 45 45 45 45 44 44 44 44 44 43 43 42 42 41 41 41 41 41 41 41 41 41 41 41 41 41 40 40 40 40 41 41 41 40 39 38 37 37 36 36 36 36 36 36 36 36 36 36 37 37
33 34 35 36 36 36 36 36 36 36 37 38 39 40 41 42 42 43 43 44 44 44 44 43 44 44 44 44 44 44 44 43 43 43 43 43 42 41 41 41 41 41 41 41 41 41 40 40 40 40 39 39 38 37 36 36 36 35 35 35 35 35 35 35 35 36 36 36 36
33 34 35 36 36 36 36 36 36 36 36 37 38 39 40 41 41 42 42 43 43 43 43 43 43 43 44 44 44 44 44 44 44 44 43 42 41 40 40 40 40 41 41 41 41 40 40 39 38 37 37 37 36 36 36 36 35 35 35 34 34 34 34 34 35 35 35 36 36
33 34 35 36 36 36 36 36 36 36 36 37 37 38 39 40 40 41 41 42 42 43 43 42 43 43 43 43 44 44 45 45 44 44 43 41 41 40 40 40 40 41 41 41 40 40 39 37 36 36 36 36 35 35 35 35 35 35 35 34 34 34 34 34 34 34 34 35 35
34 35 36 36 36 36 36 36 36 36 36 36 36 37 37 38 39 40 40 41 41 42 42 42 42 42 43 43 44 44 45 45 44 43 42 41 41 40 40 40 41 41 40 40 40 39 38 37 36 36 36 35 35 35 35 35 35 35 34 34 34 34 34 34 34 34 34 34 35
35 35 36 36 36 36 36 36 36 36 36 36 36 36 37 37 38 39 40 41 41 41 41 42 42 42 42 43 44 44 44 44 43 42 42 41 41 41 41 41 41 40 40 39 39 38 37 37 36 36 36 36 36 36 35 35 35 35 35 35 34 34 34 34 34 34 34 34 34
35 35 35 36 36 36 36 36 36 36 36 36 36 36 36 37 38 39 39 40 40 41 41 41 42 42 42 43 43 43 43 43 42 42 41 41 41 41 40 41 40 39 39 39 38 37 36 36 36 36 36 36 35 35 35 35 35 35 35 35 35 35 34 34 34 34 34 35 35
34 35 35 35 35 35 35 36 35 35 35 35 36 36 36 36 37 38 39 39 40 40 40 41 41 42 42 43 42 42 41 41 41 41 40 39 39 39 39 39 39 39 38 37 37 37 36 36 36 35 35 34 34 33 33 33 33 33 34 34 34 34 34 34 34 34 34 34 35
34 34 35 35 35 35 35 35 35 35 35 35 35 36 36 36 37 38 39 39 39 40 40 40 41 41 41 41 41 40 40 40 39 39 38 38 38 39 39 39 39 38 38 38 38 38 38 37 36 34 33 32 32 31 31 30 31 31 31 31 31 32 32 32 31 32 32 32 33
33 34 34 35 34 34 34 34 34 35 35 35 35 35 36 36 37 38 39 39 39 39 39 39 39 38 38 38 38 38 38 38 38 38 38 37 37 38 38 38 38 38 38 38 38 38 38 37 36 34 32 30 30 29 29 28 28 28 28 28 28 28 28 28 28 28 29 30 31
33 33 34 34 33 33 33 34 34 34 34 34 34 35 35 36 37 37 37 38 38 38 38 37 37 37 37 36 36 36 36 37 37 37 37 36 37 37 38 38 38 38 39 39 39 38 38 37 36 35 33 31 30 29 28 28 28 27 27 27 27 27 26 26 25 25 25 26 27
32 33 33 33 32 32 33 34 34 34 34 34 34 35 35 36 36 36 36 36 36 37 36 36 36 36 36 36 35 35 35 36 36 36 36 36 36 37 37 38 38 38 38 39 39 38 37 37 36 35 34 32 30 29 28 28 27 27 27 27 27 27 26 26 25 25 24 24 24
32 32 33 32 32 32 32 33 33 33 33 34 34 35 35 36 36 35 35 35 35 35 35 35 36 36 35 35 35 34 35 35 35 36 36 36 36 36 37 37 38 38 38 38 38 37 36 36 35 35 34 33 32 30 29 27 27 27 27 27 28 28 28 27 26 26 25 25 25
32 32 32 32 32 32 32 32 32 33 33 34 34 34 35 35 35 35 34 34 34 34 35 35 35 35 34 34 34 34 34 34 34 34 34 34 34 35 36 36 36 37 37 37 37 36 36 35 34 33 32 32 30 28 27 27 27 27 27 27 27 28 28 27 27 27 26 26 26
32 32 32 32 32 32 32 32 32 32 33 34 34 34 35 35 35 34 34 33 33 34 34 34 34 33 33 34 33 33 33 33 33 32 32 32 32 32 33 34 35 36 36 36 36 36 35 34 33 32 32 31 30 28 27 27 27 27 27 27 27 27 27 26 26 26 26 26 26
31 32 32 32 32 32 32 31 32 32 33 33 33 34 34 34 35 34 34 33 33 33 33 32 32 32 32 32 32 32 32 31 31 31 31 30 30 30 30 31 32 34 35 35 35 35 34 33 32 32 31 30 29 27 26 25 25 26 26 25 25 26 26 24 25 25 25 25 25
31 31 31 32 32 32 32 31 31 32 32 32 33 33 33 34 35 35 34 33 33 32 32 32 31 30 30 30 29 29 29 29 29 29 29 29 28 28 28 28 29 32 33 35 35 35 33 32 32 31 30 30 29 27 25 25 24 25 25 25 25 25 25 25 25 24 24 24 24
31 31 31 32 32 32 32 31 31 31 31 32 32 32 33 33 34 34 34 33 32 32 31 31 30 29 28 28 28 28 28 28 27 27 26 26 26 25 25 25 25 28 31 33 34 34 33 32 31 30 29 29 27 26 26 25 24 23 23 24 24 24 24 24 24 23 23 23 23
30 30 31 31 32 32 31 30 30 30 30 31 31 32 33 33 33 34 34 34 32 31 29 28 27 27 27 27 27 27 27 27 27 26 25 25 24 24 24 23 24 27 29 30 31 32 32 31 30 29 28 28 26 25 25 25 23 23 23 23 23 23 23 23 23 23 23 23 23
30 29 30 30 31 31 31 30 29 29 30 31 31 32 32 33 33 33 34 34 33 31 29 28 28 28 27 27 27 27 27 26 26 25 24 24 23 23 23 23 23 25 27 28 29 30 31 31 30 28 27 27 26 25 24 23 23 22 22 22 22 22 23 22 22 22 23 22 23
28 28 29 29 29 30 30 29 29 29 29 30 31 31 32 32 33 33 34 34 33 32 31 30 30 29 29 29 29 28 28 27 27 25 24 23 23 22 21 21 22 24 26 27 28 28 28 29 28 28 27 26 25 24 23 22 22 22 22 22 22 22 23 22 23 23 22 22 23
28 28 28 28 28 28 28 28 27 27 28 29 30 31 32 32 32 33 33 34 33 32 31 31 30 30 30 30 29 29 29 28 27 26 25 23 23 22 21 20 21 23 25 27 27 27 28 28 28 27 27 26 25 24 23 22 21 21 21 21 21 22 23 22 23 23 23 23 25
27 27 27 26 26 26 26 26 26 26 26 27 29 30 31 32 32 33 33 33 33 32 32 31 31 31 31 31 30 29 28 28 27 26 24 23 22 22 21 20 20 22 24 26 26 27 28 30 28 27 26 25 24 23 23 22 21 20 20 20 20 21 22 22 22 23 23 25 27
24 24 24 23 23 23 23 23 23 23 24 24 27 28 30 31 32 33 33 33 33 33 32 32 32 32 32 32 30 28 27 27 26 25 24 23 23 23 22 20 19 20 23 25 25 27 29 32 31 28 26 25 24 23 22 21 20 19 19 19 19 20 21 21 21 21 22 23 26
22 22 21 21 21 21 21 21 21 22 22 22 24 26 28 30 32 32 33 32 32 33 33 33 33 32 32 31 29 27 26 25 25 24 23 23 22 22 22 20 19 19 21 23 24 26 30 34 32 28 26 25 23 22 21 21 19 19 19 19 19 19 19 20 19 19 20 21 22